www.pogodaiklimat.ru

Погода и климат >> Архив погоды >> Германия >> Штутгарт


АРХИВ ПОГОДЫ в Штутгарте

Время (UTC), дата Ветер
(напр.,м/с)
 
Видим.   Явления Облачность Т
(С)
Тd
(С)
f
(%)
Тe
(С)
Тes
(С)
Комфортность P
(гПа)
Po
(гПа)
Тmin
(С)
Tmax
(С)
R
(мм)
R24
(мм)
S
(см)
16 16.08 С 4-6
{6}
>70 км 5/1 1500 м
[Cu hum Ac lent Ci fib]
+22.6 +11.1 48 +25 +26 комфорт 1015.4 970.9
17 16.08 С 2-3
{5}
>70 км 6/1 1500 м
[Cu hum Ci sp]
+22.5 +10.7 47 +24 +25 комфорт 1014.9 970.4
18 16.08 С 2 >70 км 8/1 2000 м
[Sc diur, vesp Ci sp]
+21.4 +11.3 53 +23 +23 комфорт 1015.0 970.4 +15.2 +24.2
19 16.08 СВ 2-2
{3}
70 км 4/0
[Ac trans Ci sp]
+19.6 +11.8 61 +22 +22 комфорт 1015.1 970.2
20 16.08 З 2-3
{3}
70 км 6/0
[Ac lent Cs]
+17.9 +12.0 68 +18 +18 1015.7 970.5
21 16.08 З 1-2
{3}
60 км 8/0
[Ac lent Cs]
+16.9 +12.1 73 +18 +18 1015.7 970.4
22 16.08 В 1-1
{2}
60 км 9/0
[Ac lent Cs]
+16.3 +12.3 77 +17 +17 1015.4 970.0
23 16.08 С 1-1
{1}
60 км 9/0
[Ac trans Cs]
+15.4 +12.3 82 +16 +16 1015.2 969.7
00 17.08 СВ 1-1
{3}
60 км 9/0
[Ac trans Cs]
+14.9 +12.0 83 +15 +15 1015.2 969.6
01 17.08 С 1-2
{2}
60 км 9/0
[Ac trans Cs]
+14.5 +12.3 87 +15 +15 1015.0 969.4
02 17.08 СВ 1-1
{1}
50 км 9/0
[Ac trans Cs]
+14.2 +12.5 90 +14 +14 1014.6 968.9
03 17.08 СВ 1-1
{2}
40 км 9/0
[Ac trans Cs]
+13.9 +12.6 92 +14 +14 1014.3 968.6
04 17.08 В 1-1
{2}
50 км 9/0
[Ac As]
+13.3 +11.8 91 +13 +13 1014.4 968.6
05 17.08 В 1-2
{2}
60 км слаб. дождь 10/1 1200 м
[Frnb Ac As]
+13.7 +12.6 93 +14 +14 1014.3 968.6
06 17.08 СВ 1 60 км в посл. час дождь 10/0
[Ac As]
+14.7 +13.1 90 +15 +16 1014.4 968.8 +13.3 +21.5 0.0
07 17.08 штиль 0-1
{2}
60 км 10/1 1500 м
[Sc Ac As]
+17.2 +13.1 77 +17 +19 1014.3 969.1
08 17.08 СВ 1-2
{2}
60 км 10/0
[Ac As]
+19.0 +13.2 69 +21 +24 комфорт 1013.8 968.9
09 17.08 Ю 1 50 км слаб. дождь 10/3 1140 м
[Sc Ac As]
+20.1 +13.7 67 +23 +26 комфорт 1014.0 969.3 0.1
10 17.08 ЮЗ 1-2
{3}
50 км слаб. дождь 10/1 1140 м
[Sc Ac As]
+20.2 +15.0 72 +24 +28 комфорт 1014.1 969.4
11 17.08 ЮЗ 2-3
{3}
50 км в посл. час дождь 10/1 750 м
[Cu hum Ac As]
+21.5 +14.9 66 +25 +29 комфорт 1013.8 969.3
12 17.08 Ю 3 60 км слаб. дождь 10/1 660 м
[Cu hum Ac As]
+22.2 +12.7 55 +25 +28 комфорт 1012.9 968.5 0.2
13 17.08 ЮЗ 2-4
{6}
60 км в посл. час дождь 9/1 750 м
[Cu Sc Ac As]
+22.4 +13.6 57 +25 +30 комфорт 1012.5 968.2
14 17.08 Ю 3-6
{6}
60 км 9/9 900 м
[Cu Sc]
+23.4 +13.9 55 +27 +28 душно 1012.1 967.9
15 17.08 ЮЗ 5-8
{8}
70 км {дождь} 10/9 1500 м
[Sc]
+22.5 +11.2 49 +25 +25 комфорт 1012.6 968.2 0.0
16 17.08 ЮЗ 2-3
{7}
50 км слаб. дождь 10/9 1500 м
[Sc]
+21.3 +13.2 60 +24 +24 комфорт 1012.9 968.4
17 17.08 З 5-7
{8}
20 км слаб. дождь 10/10 1260 м
[Sc]
+18.6 +13.7 73 +19 +19 1013.6 968.7
18 17.08 З 4 12 км дождь 10/9 1380 м
[Sc]
+17.1 +15.0 87 +17 +17 1013.9 968.8 +14.6 +23.4 0.7
19 17.08 В 1-2
{6}
25 км слаб. дождь 10/1 300 м
[Frnb As op]
+16.7 +15.2 91 +18 +18 1014.0 968.8
20 17.08 В 2-3
{3}
30 км слаб. дождь 10/9 120 м
[Sc]
+16.2 +15.3 94 +16 +16 1013.7 968.4
21 17.08 В 2 35 км слаб. дождь 10/9 90 м
[Sc]
+16.0 +15.0 94 +16 +16 1013.3 968.0 0.8
22 17.08 В 2-3
{4}
35 км в посл. час дождь 10/3 90 м
[Sc Ac As]
+15.9 +15.0 94 +16 +16 1012.7 967.4
23 17.08 штиль 0-1
{2}
50 км 9/0
[Ac As]
+15.9 +15.0 94 +16 +16 1012.2 967.0
00 18.08 Ю 1-1
{6}
50 км {дождь} 9/0
[Ac As]
+15.9 +14.8 93 +17 +17 1011.9 966.7 0.0
01 18.08 З 1-1
{2}
50 км 9/0
[Ac As]
+15.8 +14.9 94 +16 +16 1011.6 966.4
02 18.08 штиль 0-1
{1}
50 км 9/0
[Ac As]
+15.9 +14.9 94 +16 +16 1011.1 965.9
03 18.08 ЮВ 1-1
{2}
50 км 6/0
[Ac trans Ci fib]
+15.7 +14.4 92 +16 +16 1010.8 965.6
04 18.08 Ю 1-2
{2}
50 км 3/0
[Ac trans Ci fib]
+15.1 +14.2 94 +16 +16 1011.0 965.7
05 18.08 В 1-1
{1}
70 км местами туман поземный 1/0
[Ac lent]
+15.1 +14.0 93 +16 +16 1011.0 965.7
06 18.08 СВ 1 70 км туман на расстоянии 1/0
[Ac lent]
+16.6 +15.4 93 +17 +19 1010.6 965.5 +15.0 +17.1
07 18.08 В 1-2
{2}
70 км 1/0
[Ac lent]
+18.9 +16.3 85 +21 +26 комфорт 1010.2 965.5
08 18.08 В 2-4
{4}
60 км ясно +22.5 +16.6 69 +27 +34 душно 1009.5 965.4
09 18.08 Ю 2-4
{5}
60 км ясно +25.6 +15.9 55 +29 +39 душно 1008.9 965.2
10 18.08 ЮЗ 3-6
{6}
70 км 1/1 1410 м
[Cu hum]
+27.4 +15.7 49 +30 +40 жарко 1008.3 964.9
11 18.08 Ю 3-7
{7}
70 км 1/1 1500 м
[Cu hum]
+28.6 +15.4 45 +31 +42 жарко 1007.9 964.7
12 18.08 ЮЗ 3-6
{9}
70 км 1/1 1500 м
[Cu hum Ac inh]
+30.2 +14.1 37 +32 +42 жарко 1007.3 964.3
13 18.08 ЮЗ 3-6
{7}
70 км 1/1 1500 м
[Cu med, cong]
+30.9 +13.2 34 +32 +41 жарко 1006.9 964.0
14 18.08 ЮЗ 5-9
{9}
70 км 3/1 1500 м
[Cu med, cong Ac cast]
+31.9 +12.1 30 +32 +36 жарко 1006.8 964.0
15 18.08 З 6-9
{9}
70 км 5/3 1500 м
[Cu med, cong Ac cast]
+30.4 +13.5 36 +32 +33 жарко 1007.0 964.0
16 18.08 Ю 3-6
{11}
30 км гроза без осадков {ливн. осадки} 8/4 1500 м
[Cb cap Ac cuf]
+27.6 +15.3 47 +30 +31 жарко 1007.7 964.4
17 18.08 ЮЗ 2-5
{8}
70 км в посл. час гроза 6/3 1500 м
[Cu med, cong Ac cuf]
+26.8 +15.5 50 +30 +30 душно 1008.1 964.6
18 18.08 ЮЗ 4 70 км {гроза, ливн. осадки} 6/3 1500 м
[Cu med, cong Ac cuf Ci sp]
+24.9 +16.0 58 +28 +28 жарко 1008.7 964.9 +16.6 +32.1 0.2
19 18.08 З 4-6
{6}
60 км 8/1 1500 м
[Cu med, cong Ac cast Ci sp]
+24.1 +15.4 58 +27 +27 жарко 1009.3 965.4
20 18.08 З 2-3
{5}
60 км зарница 8/1 1500 м
[Cu med, cong Ac cast Ci sp]
+23.7 +15.8 61 +27 +27 жарко 1010.4 966.4
21 18.08 СЗ 6-9
{9}
60 км зарница 9/1 1500 м
[Cb cap Ac cast]
+22.8 +16.0 65 +27 +27 душно 1010.7 966.6
22 18.08 З 4-6
{11}
13 км гроза, ливневой дождь туман 10/9 1440 м
[Cb cap]
+21.3 +16.1 72 +25 +25 комфорт 1013.4 968.9
23 18.08 ЮЗ 3-5
{6}
30 км в посл. час гроза {ливн. осадки} туман 9/3 1500 м
[Cb cap Ac cuf]
+19.0 +16.4 85 +21 +21 комфорт 1012.8 968.0
00 19.08 Ю 3-5
{11}
35 км в посл. час ливневой дождь {гроза} 9/3 1500 м
[Cb cap Ac As]
+18.1 +16.3 89 +18 +18 1015.1 970.1 2
01 19.08 Ю 1-3
{6}
17 км слаб. дождь 10/9 900 м
[Sc]
+17.7 +16.1 90 +19 +19 1014.9 969.8
02 19.08 Ю 1-2
{3}
30 км слаб. дождь 10/9 1020 м
[Sc]
+17.7 +16.2 91 +19 +19 1015.1 970.0
03 19.08 Ю 2-4
{6}
30 км слаб. дождь 10/9 720 м
[Cu Sc]
+17.7 +16.1 90 +18 +18 1015.4 970.3 0.5
04 19.08 Ю 1-2
{4}
40 км в посл. час дождь 9/4 720 м
[Cb calv Ac As]
+17.5 +15.7 89 +19 +19 1015.1 970.0
05 19.08 З 2-3
{4}
50 км 9/8 300 м
[Cu Sc Ac As]
+17.4 +15.6 89 +18 +18 1015.8 970.6
06 19.08 СЗ 2 25 км слаб. ливневой дождь 9/9 300 м
[Cb calv]
+17.5 +15.5 88 +18 +18 1016.6 971.4 +17.3 +25.4 0.0
07 19.08 ЮЗ 1-2
{3}
12 км в посл. час ливневой дождь 8/6 300 м
[Cb calv Ci sp]
+17.5 +15.6 89 +19 +20 1016.5 971.3
08 19.08 СЗ 2-4
{4}
50 км 9/9 150 м
[Cu Sc]
+19.0 +15.7 81 +21 +22 комфорт 1016.7 971.7
09 19.08 С 3 50 км осадки на расстоянии {ливн. осадки} 10/9 300 м
[Cb calv]
+18.9 +14.9 78 +20 +21 1017.0 972.0 1
10 19.08 СВ 1-3
{5}
25 км в посл. час ливневой дождь 9/9 300 м
[Cb calv]
+19.4 +14.9 75 +22 +24 комфорт 1017.4 972.4
11 19.08 В 2-3
{4}
60 км осадки на расстоянии 9/4 750 м
[Cb cap Ac As]
+20.6 +15.1 71 +24 +28 комфорт 1017.4 972.6
12 19.08 С 2-4
{6}
70 км {ливн. осадки} 9/6 750 м
[Cu med, cong Ac As]
+21.1 +14.9 68 +24 +27 комфорт 1017.5 972.8 0.0
13 19.08 СВ 2-4
{6}
70 км 9/6 900 м
[Cu med, cong Ac As]
+21.7 +14.1 62 +25 +27 комфорт 1017.5 972.9
14 19.08 В 2-3
{4}
70 км 9/4 1050 м
[Cu Sc Ac As Ci sp]
+22.1 +12.9 56 +25 +28 комфорт 1017.4 972.8
15 19.08 ЮВ 2-3
{6}
70 км 9/9 1350 м
[Cu Sc]
+21.8 +12.8 57 +24 +25 комфорт 1017.7 973.0
16 19.08 ЮВ 2-3
{3}
70 км 9/5 1200 м
[Cu Sc Ac As]
+22.1 +14.0 60 +25 +26 комфорт 1017.5 972.9
17 19.08 В 1-2
{2}
70 км 9/9 1050 м
[Cu Sc]
+21.5 +14.7 65 +25 +25 комфорт 1017.9 973.2
18 19.08 ЮВ 1 70 км 8/3 1500 м
[Cu med, cong Ac As Ci sp]
+21.2 +15.4 69 +24 +24 комфорт 1017.9 973.2 +17.3 +22.4 0.0
19 19.08 Ю 1-2
{3}
60 км 8/1 1500 м
[Cu med, cong Ac trans Ci fib]
+19.9 +15.5 76 +23 +23 комфорт 1018.2 973.3
20 19.08 Ю 1-2
{2}
60 км 8/0
[Ac trans Ci fib]
+18.7 +14.7 78 +21 +21 комфорт 1019.0 973.9
21 19.08 ЮЗ 2-2
{3}
50 км 8/0
[Ci fib]
+17.6 +14.7 83 +18 +18 1019.8 974.5
22 19.08 ЮЗ 1-2
{2}
50 км 8/0
[Ci fib]
+17.3 +14.8 85 +18 +18 1020.0 974.6
23 19.08 В 1-1
{3}
50 км 9/4 1500 м
[Sc Ci fib]
+17.1 +15.0 87 +18 +18 1020.3 974.9
00 20.08 З 1-2
{3}
50 км 9/9 1500 м
[Sc]
+17.2 +14.8 86 +18 +18 1020.6 975.2
01 20.08 штиль 0-1
{3}
50 км 9/4 1050 м
[Sc Ac trans]
+17.1 +13.3 78 +17 +17 1020.4 974.9
02 20.08 З 2-2
{3}
50 км 9/0
[Ac trans]
+16.5 +11.7 73 +17 +17 1020.5 974.9
03 20.08 ЮЗ 1-2
{3}
50 км 9/0
[Ac trans]
+16.1 +10.8 71 +17 +17 1020.9 975.2
04 20.08 З 2-2
{3}
50 км 9/0
[Ac trans]
+15.8 +10.4 70 +16 +16 1020.7 975.0
05 20.08 З 2-3
{3}
60 км 9/4 1230 м
[Sc Ac trans]
+16.1 +10.1 68 +16 +16 1021.0 975.3
06 20.08 СЗ 1 50 км 9/5 1000 м
[Sc Ac trans]
+16.1 +10.5 69 +17 +17 1021.1 975.4 +15.8 +21.2
07 20.08 СЗ 1-2
{3}
50 км 9/6 1350 м
[Sc Ac trans]
+16.9 +10.4 66 +18 +19 1021.6 976.0
08 20.08 СЗ 2-3
{4}
50 км 10/8 1350 м
[Sc Ac trans]
+17.2 +10.3 64 +18 +18 1021.7 976.1
09 20.08 С 2 50 км 10/6 1440 м
[Sc As op]
+17.4 +10.2 63 +18 +19 1021.8 976.3
10 20.08 СЗ 2-3
{4}
50 км 10/8 1200 м
[Cu Sc Ac As]
+17.6 +10.5 63 +18 +19 1022.1 976.6
11 20.08 СЗ 3-5
{5}
50 км 10/6 1200 м
[Sc Ac As]
+18.1 +11.5 65 +18 +20 1022.3 976.9
12 20.08 СЗ 4-6
{6}
30 км слаб. дождь 10/9 1380 м
[Sc]
+17.0 +12.5 75 +17 +17 1022.7 977.1 0.0
13 20.08 З 3-4
{5}
>70 км слаб. дождь 10/3 1380 м
[Sc As op]
+15.8 +12.9 83 +15 +17 1023.1 977.3
14 20.08 З 3-4
{5}
15 км слаб. дождь 10/4 660 м
[Cu Sc As op]
+15.5 +13.2 86 +15 +16 1024.0 978.1
15 20.08 З 2-3
{7}
12 км дождь 10/3 660 м
[Cu Sc As op]
+14.5 +12.7 89 +14 +15 1024.9 978.8 5
16 20.08 З 3-4
{4}
12 км слаб. дождь 10/1 300 м
[Frnb As op]
+14.6 +12.8 89 +14 +14 1025.4 979.3
17 20.08 ЮЗ 1-2
{4}
14 км слаб. дождь 10/1 210 м
[Frnb As op]
+14.3 +12.7 90 +15 +15 1025.6 979.5
18 20.08 ЮЗ 2 14 км слаб. дождь 10/1 300 м
[Cu Sc As op]
+14.0 +12.4 90 +13 +13 1026.4 980.2 +14.0 +18.2 4
19 20.08 Ю 1-3
{3}
20 км в посл. час дождь 10/10 1260 м
[Sc]
+13.9 +12.5 91 +14 +14 1027.0 980.7
20 20.08 Ю 1-3
{3}
20 км 9/9 1500 м
[Sc]
+13.8 +12.6 92 +14 +14 1027.6 981.3
21 20.08 Ю 1-2
{3}
20 км {дождь} 10/0
[Ac trans]
+13.5 +12.2 92 +14 +14 1027.3 981.0 0.1
22 20.08 ЮЗ 1-2
{3}
20 км 10/0
[Ac trans Cs]
+13.1 +11.9 92 +13 +13 1028.0 981.6
23 20.08 ЮЗ 1-1
{2}
20 км 9/0
[Ac trans]
+13.1 +12.0 93 +13 +13 1028.3 981.8
00 21.08 ЮВ 1-2
{3}
20 км {дождь} 4/0
[Ac trans]
+11.7 +10.6 93 +11 +11 1028.4 981.7
01 21.08 В 1-1
{2}
20 км туман на расстоянии 3/0
[Ci fib]
+11.0 +10.3 95 +11 +11 1028.8 982.0
02 21.08 СЗ 1-1
{2}
9000 м туман на расстоянии 3/0
[Ci fib]
+10.0 +9.3 95 +9 +9 1029.1 982.1
03 21.08 В 1-1
{2}
6000 м туман на расстоянии 3/3 30 м
[St]
+9.5 +8.9 96 +9 +9 1029.3 982.2
04 21.08 С 1-1
{2}
400 м туман 3/3 30 м
[St]
+8.8 +8.4 97 +8 +8 1029.6 982.3
05 21.08 Ю 1-1
{1}
1200 м в посл. час туман 3/3 30 м
[St]
+8.7 +8.2 97 +8 +8 1030.0 982.7
06 21.08 ЮВ 1 200 м туман 5/5 <50 м
[St]
+9.8 +9.6 99 +9 +10 1029.8 982.7 +8.5 +14.1 0.0
07 21.08 ЮВ 1-2
{3}
700 м туман 9/9 30 м
[St]
+10.8 +10.5 98 +10 +11 1029.8 982.9
08 21.08 В 1-2
{3}
600 м туман 9/9 30 м
[St]
+11.9 +11.7 99 +12 +12 1029.5 982.8
09 21.08 СВ 1 8000 м в посл. час туман 8/8 30 м
[Cu hum]
+13.6 +12.5 93 +14 +16 1029.1 982.7
10 21.08 С 2-4
{4}
35 км 1/1 240 м
[Cu hum]
+16.3 +12.5 78 +16 +28 опасность
простуды
1028.4 982.4
11 21.08 СВ 3-5
{6}
50 км 3/3 720 м
[Cu hum]
+19.3 +11.9 62 +21 +29 комфорт 1027.6 982.1
12 21.08 СВ 2-4
{7}
50 км {туман} 3/3 1020 м
[Cu med, cong]
+20.0 +11.0 56 +22 +32 комфорт 1027.1 981.7 0.0
13 21.08 СВ 4-7
{7}
50 км 3/3 1140 м
[Cu med, cong]
+21.2 +11.0 52 +23 +29 комфорт 1026.4 981.2
14 21.08 В 3-5
{7}
50 км 3/3 1140 м
[Cu med, cong Ci fib]
+21.3 +10.5 50 +23 +28 комфорт 1026.0 980.9
15 21.08 В 4-6
{7}
55 км 3/3 1350 м
[Cu med, cong Ci fib]
+21.6 +10.0 48 +23 +23 комфорт 1025.5 980.4
16 21.08 В 3-5
{6}
65 км 4/3 1350 м
[Cu med, cong Ac trans Ci fib]
+21.1 +8.8 45 +22 +24 комфорт 1025.7 980.5
17 21.08 СВ 5-7
{7}
65 км 4/3 1350 м
[Cu med, cong Ci fib]
+20.5 +9.8 50 +22 +22 комфорт 1025.4 980.2
18 21.08 В 3 65 км 6/3 1500 м
[Sc Ci sp]
+18.5 +10.8 61 +19 +19 1025.7 980.2 +9.8 +21.9
19 21.08 СВ 2-3
{4}
60 км 8/3 1500 м
[Sc Ci sp]
+17.0 +10.7 66 +17 +17 1026.1 980.3
20 21.08 СВ 1-2
{3}
55 км 8/1 1500 м
[Sc Ci sp]
+15.1 +10.4 73 +16 +16 1026.7 980.6
21 21.08 С 1-2
{4}
55 км 8/0
[Ci sp]
+15.5 +10.3 71 +16 +16 1026.6 980.6
22 21.08 СВ 1-1
{2}
55 км 9/0
[Ci sp]
+14.6 +9.8 73 +15 +15 1026.5 980.3
23 21.08 СЗ 1-1
{2}
50 км 5/0
[Ci sp]
+13.5 +9.8 78 +14 +14 1026.7 980.3
00 22.08 С 1-1
{4}
45 км 4/0
[Ci sp]
+12.5 +9.4 81 +13 +13 1026.2 979.7
01 22.08 СЗ 2-2
{2}
45 км 5/0
[Ci sp]
+11.6 +9.0 84 +10 +10 1026.1 979.5
02 22.08 СЗ 2-2
{2}
45 км 3/0
[Ci sp]
+11.1 +9.0 87 +10 +10 1026.0 979.3
03 22.08 З 2-2
{2}
40 км 3/0
[Ci sp]
+11.2 +9.1 87 +10 +10 1026.1 979.4
04 22.08 З 1-1
{2}
45 км 3/0
[Ci sp]
+11.3 +9.5 89 +11 +11 1026.0 979.3
05 22.08 штиль 0-1
{1}
50 км местами туман поземный 3/0
[Ci sp]
+11.5 +9.7 89 +11 +11 1025.9 979.3
06 22.08 В 1 40 км 3/0
[Ci sp]
+12.6 +10.5 87 +13 +14 1026.1 979.6 +10.4 +18.5
07 22.08 В 2-2
{2}
40 км 1/1 480 м
[Cu hum Ci sp]
+15.2 +12.1 82 +15 +18 1025.6 979.6
08 22.08 СВ 3-4
{4}
45 км 1/1 720 м
[Cu hum Ci sp]
+17.4 +12.3 72 +17 +22 1025.5 979.8
09 22.08 СВ 4 50 км 1/1 840 м
[Cu hum]
+19.8 +12.7 64 +22 +28 комфорт 1025.1 979.8
10 22.08 В 4-7
{9}
50 км 3/3 960 м
[Cu hum]
+20.7 +11.7 56 +23 +29 комфорт 1024.8 979.7
11 22.08 СВ 4-7
{7}
60 км 1/1 1200 м
[Cu hum]
+21.1 +11.1 53 +23 +31 комфорт 1024.5 979.4
12 22.08 В 4-6
{9}
60 км 1/1 1320 м
[Cu hum Ci fib]
+22.6 +12.2 52 +25 +33 комфорт 1024.0 979.2
13 22.08 СВ 3-6
{7}
60 км 1/1 1440 м
[Cu hum Ci fib]
+23.0 +11.0 47 +25 +34 комфорт 1023.7 978.9
14 22.08 В 4-6
{6}
60 км 1/1 1470 м
[Cu hum Ci fib]
+23.5 +11.7 47 +25 +31 комфорт 1023.3 978.6
15 22.08 В 3-6
{7}
60 км 1/1 1500 м
[Cu hum Ci fib]
+23.7 +11.6 47 +25 +30 комфорт 1023.1 978.5
16 22.08 СВ 2-4
{5}
65 км 1/1 1500 м
[Sc diur, vesp Ci fib]
+23.6 +11.2 46 +25 +28 комфорт 1023.2 978.5
17 22.08 В 2-4
{4}
65 км 1/1 1500 м
[Sc diur, vesp Ci fib]
+23.4 +11.8 48 +26 +27 жарко 1023.1 978.4
18 22.08 СВ 3 65 км 1/1 1500 м
[Sc diur, vesp Ci fib]
+21.9 +11.9 53 +24 +24 комфорт 1023.5 978.6 +12.6 +23.9
19 22.08 СВ 1-1
{3}
65 км 3/1 1500 м
[Sc Ci fib]
+19.9 +11.8 60 +23 +23 комфорт 1024.3 979.1
20 22.08 СВ 1-2
{2}
65 км 3/0
[Ci fib]
+18.3 +12.1 67 +20 +20 1025.2 979.7
21 22.08 СВ 1-1
{3}
65 км ясно +16.8 +12.1 74 +18 +18 1025.7 979.9
22 22.08 З 2-2
{2}
65 км 1/0
[Ci fib]
+15.8 +12.5 81 +16 +16 1025.8 979.9
23 22.08 СЗ 1-2
{2}
65 км 1/0
[Ci fib]
+14.5 +11.7 83 +15 +15 1025.9 979.8
00 23.08 СЗ 1-2
{3}
65 км 3/0
[Ci fib]
+13.5 +11.6 88 +14 +14 1026.0 979.7
01 23.08 СЗ 1-1
{2}
55 км ясно +12.9 +11.5 91 +13 +13 1026.0 979.6
02 23.08 СЗ 1-2
{2}
55 км ясно +12.2 +11.0 92 +12 +12 1026.1 979.6
03 23.08 штиль 0-1
{2}
55 км ясно +11.8 +10.8 94 +11 +11 1026.2 979.6
04 23.08 З 1-1
{1}
35 км ясно +11.1 +10.1 94 +11 +11 1026.2 979.5
05 23.08 В 1-1
{1}
7000 м туман на расстоянии 1/1 60 м
[St Ci fib]
+11.0 +10.0 94 +11 +11 1026.2 979.5
06 23.08 СВ 1 18 км 1/1 50 м
[St Ci fib]
+13.3 +12.4 94 +13 +15 1026.1 979.8 +10.7 +21.9
07 23.08 В 1-2
{2}
28 км 1/0
[Ci fib]
+15.9 +13.2 84 +17 +21 1025.9 980.0
08 23.08 В 1-2
{2}
40 км 1/1 540 м
[Cu hum Ci fib]
+18.2 +14.0 76 +20 +27 1025.6 980.1
09 23.08 СВ 2 45 км 1/1 960 м
[Cu hum Ci fib]
+20.6 +13.6 64 +24 +32 комфорт 1024.9 979.8
10 23.08 СВ 4-9
{9}
55 км 4/4 1110 м
[Cu hum]
+22.5 +13.5 57 +26 +30 жарко 1024.3 979.5
11 23.08 СВ 4-5
{9}
55 км 3/3 1230 м
[Cu hum Ci fib]
+23.1 +12.4 51 +26 +32 жарко 1023.7 979.0
12 23.08 В 3-6
{9}
50 км 1/1 1260 м
[Cu hum Ci fib]
+24.1 +12.8 49 +26 +36 жарко 1023.2 978.6
13 23.08 СВ 3-5
{7}
50 км 1/1 1350 м
[Cu hum Ci fib]
+24.3 +12.5 48 +26 +35 жарко 1022.6 978.1
14 23.08 СВ 2-5
{9}
50 км 1/1 1440 м
[Cu hum Ci fib]
+25.0 +12.2 45 +27 +35 жарко 1022.1 977.7
15 23.08 В 3-5
{9}
55 км 1/1 1440 м
[Cu hum Ci fib]
+25.0 +12.8 47 +27 +31 жарко 1021.7 977.3
16 23.08 СВ 3-5
{7}
55 км 1/1 1500 м
[Cu hum]
+24.9 +13.2 48 +27 +29 жарко 1021.4 977.0

 

Местоположение метеостанции Штутгарт (Германия): широта 48.68 долгота 9.22 высота над уровнем моря 396 м.

В архиве по умолчанию представлена погода в Штутгарте за последнюю неделю. Архивные данные за месяц целиком и за предыдущие месяцы, начиная с января 2011 года, Вы можете получить, выбрав интересующий диапазон дат из раскрывающегося списка и нажав кнопку "Ввод!".


*Определитесь, кто Вы:
робот инопланетянин человек

Внимание! Время в таблицах - всемирное. Для получения местного времени необходимо прибавить поправку, которая равна 1 ч.

Смотрите также архив погоды в соседних городах и на ближайших метеорологических станциях:

Погода в Штутгарте (Германия) (17 км)
Погода в Мюлаккере (Германия) (41 км)
Погода в Кронхютте (Германия) (43 км)
Погода в Штёттен-ам-Ауэрберг (Германия) (48 км)
Погода в Месштеттене (Германия) (58 км)
Погода в Ульм-Мерингене (Германия) (58 км)
Погода в Эрингене (Германия) (64 км)
Погода в Фройденштадте (Германия) (64 км)
Погода в Лаупхайме (Германия) (73 км)
Погода в Вайбштадте (Германия) (73 км)

Пояснения к столбцам:

Ветер - указаны скорость ветра в м/с - средняя за 10 мин, порывы в срок и между сроками (в фигурных скобках) и направление, откуда дует ветер: С - северный, СВ - северо-восточный, В - восточный, ЮВ - юго-восточный, Ю - южный, ЮЗ - юго-западный, З - западный, СЗ - северо-западный.
Видимость - горизонтальная дальность видимости в метрах или километрах. При видимости от 1 до 10 км при отсутствии осадков обычно наблюдается дымка, при ухудшении видимости до 1 км и менее - туман. В сухую погоду видимость может ухудшаться дымом, пылью или мглою.
Явления - указаны атмосферные явления, наблюдавшиеся в срок или в последний час перед сроком; фигурными скобками обозначены явления, наблюдавшиеся между сроками (за 1-3 часа до срока); квадратными скобками обозначены град или гололедные отложения с указанием их диаметра в мм.
Облачность - указаны через наклонную черту общая и нижняя облачность в баллах и высота нижней границы облаков в метрах; квадратными скобками обозначены формы облаков: Ci - перистые, Cs - перисто-слоистые, Cc - перисто-кучевые, Ac - высококучевые, As - высокослоистые, Sc - слоисто-кучевые, Ns - слоисто-дождевые, Cu - кучевые, Cb - кучево-дождевые. Подробнее классификацию облаков см. в Атласе облаков (PDF).
T - Температура воздуха - температура, измеренная на высоте 2 м над землей.
Td - Температура точки росы - температура, при понижении до которой содержащийся в воздухе водяной пар достигнет насыщения.
f - Относительная влажность воздуха - влажноcть воздуха, измеренная на высоте 2 м над землей.
Te - Эффективная температура - температура, которую ощущает одетый по сезону человек в тени. Характеристика душности погоды. При расчете учитывается влияние влажности воздуха и скорости ветра на теплоощущения человека.
Tes - Эффективная температура на солнце - температура, которую ощущает человек, с поправкой на солнечный нагрев. Характеристика знойности погоды. Зависит от высоты солнца над горизонтом, облачности и скорости ветра. Ночью, в пасмурную погоду, а также при ветре 12 м/с и более поправка равна нулю.
P - Атмосферное давление - приведенное к уровню моря атмосферное давление.
Po - Атмосферное давление - измеренное на уровне метеостанции атмосферное давление.
Tmin - Минимальная температура - минимум температуры воздуха на высоте 2 м над землей.
Tmax - Максимальная температура - максимум температуры воздуха на высоте 2 м над землей.
R - Количество осадков - Количество выпавших осадков за период времени, мм. При наведении курсора мыши на число - период времени, за который выпало указанное количество осадков.
R24 - Количество осадков - Количество выпавших осадков за 24 часа, мм.
S - Снежный покров - Высота снежного покрова, см. При наведении курсора мыши на число - состояние снежного покрова и степень покрытия местности в баллах.